Location: Voyageurs National Park
(48.5020°N, 92.9292°W)
Time: 13:06:56
(UTC-05:00)

Amateur Radio Satellites - All Passes

Search period start: 29 June 2016 12:36
Search period end: 30 June 2016 12:36
Location: Voyageurs National Park, 48.5020°N, 92.9292°W

Satellite Date Start Highest point End Downlink Frequencies (MHz)
Time Altitude Azimuth
PCSat 29 Jun 12:40:06 12:44:29 25° 251° (WSW) 12:48:50 145.827
BEESAT 3 29 Jun 12:42:00 12:44:24 16° 248° (WSW) 12:46:47 437.485
AO-7 29 Jun 12:53:51 12:57:56 15° 33° (NNE) 13:02:02 29.400- 29.500
JAS-2 29 Jun 12:55:39 13:03:14 88° 253° (WSW) 13:10:05 435.910
50 SAT 29 Jun 12:58:12 13:01:56 75° 101° (E) 13:05:36 437.505
CUBEBUG 1 29 Jun 12:58:40 13:03:00 70° 103° (ESE) 13:07:18 437.445
ISS 29 Jun 13:06:13 13:09:26 53° 10° (N) 13:12:40 145.825
BUGSAT 1 29 Jun 13:07:49 13:11:22 30° 264° (W) 13:14:56 437.445
VELOX 1 29 Jun 13:09:06 13:13:31 80° 105° (ESE) 13:17:55 145.980
O/OREOS (USA 219) 29 Jun 13:12:45 13:17:03 47° 251° (WSW) 13:21:22 437.305
YUBILEINY 29 Jun 13:19:53 13:28:32 74° 95° (E) 13:37:17 435.215
BEESAT 2 29 Jun 13:22:39 13:23:56 11° 250° (WSW) 13:25:12 435.950
TISAT 1 29 Jun 13:27:03 13:29:48 17° 91° (E) 13:32:32 437.305
Cosmos 2491 29 Jun 13:31:39 13:39:36 42° 274° (W) 13:47:34 435.465 / 435.565
Oscar 19 29 Jun 13:44:34 13:49:44 84° 255° (WSW) 13:54:54 437.125/150
SPROUT 29 Jun 13:44:48 13:49:07 89° 106° (ESE) 13:53:25 437.525
UKube-1 29 Jun 13:45:08 13:49:26 70° 288° (WNW) 13:53:43 .
ESTCUBE 1 29 Jun 13:50:18 13:54:10 29° 295° (WNW) 13:58:00 437.505/2401.250
AISAT 29 Jun 13:50:20 13:54:27 39° 292° (WNW) 13:58:32 437.250
Cosmos 2504 29 Jun 13:53:17 14:00:51 42° 85° (E) 14:08:52 435.465 / 435.565
DX 1 29 Jun 14:07:06 14:11:04 36° 293° (WNW) 14:15:02 434.975-435.025
Gurwin Techsat 1B 29 Jun 14:08:57 14:14:15 75° 73° (ENE) 14:19:36 435.225
ITAMSAT 1 29 Jun 14:09:47 14:14:23 33° 63° (ENE) 14:19:01 435.822/435.867
AIST 2 29 Jun 14:10:13 14:14:16 51° 238° (WSW) 14:18:18 435.215
SWISSCUBE 29 Jun 14:20:48 14:23:32 15° 89° (E) 14:26:14 437.505
RS-15 29 Jun 14:32:05 14:43:31 56° 324° (NW) 14:55:33 29.354- 29.394
50 SAT 29 Jun 14:33:47 14:35:03 12° 301° (WNW) 14:36:20 437.505
CUBEBUG 1 29 Jun 14:36:14 14:38:47 16° 301° (WNW) 14:41:20 437.445
AO-7 29 Jun 14:40:54 14:48:38 45° 57° (ENE) 14:56:26 29.400- 29.500
ISS 29 Jun 14:42:43 14:45:55 52° 209° (SSW) 14:49:06 145.825
JAS-2 29 Jun 14:43:50 14:48:59 20° 272° (W) 14:53:52 435.910
BEESAT 29 Jun 14:45:11 14:48:58 23° 92° (E) 14:52:43 436.000
ITUPSAT 1 29 Jun 14:46:52 14:50:42 23° 93° (E) 14:54:30 437.325
VELOX 1 29 Jun 14:47:03 14:49:25 14° 302° (WNW) 14:51:45 145.980
TISAT 1 29 Jun 15:01:40 15:05:47 54° 289° (WNW) 15:09:54 437.305
YUBILEINY 29 Jun 15:18:46 15:26:13 31° 298° (WNW) 15:33:47 435.215
SPROUT 29 Jun 15:22:35 15:24:26 13° 303° (WNW) 15:26:16 437.525
SO-50 29 Jun 15:22:54 15:26:16 19° 112° (ESE) 15:29:38 436.795
UKube-1 29 Jun 15:24:28 15:24:41 10° 306° (NW) 15:24:55 .
Oscar 19 29 Jun 15:27:42 15:29:51 12° 274° (W) 15:31:59 437.125/150
Cosmos 2504 29 Jun 15:46:03 15:54:05 52° 289° (WNW) 16:02:38 435.465 / 435.565
HORYU 2 29 Jun 15:46:10 15:49:01 17° 59° (ENE) 15:51:54 437.375
ITAMSAT 1 29 Jun 15:48:51 15:53:46 41° 262° (W) 15:58:43 435.822/435.867
Gurwin Techsat 1B 29 Jun 15:51:18 15:54:48 18° 271° (W) 15:58:19 435.225
SWISSCUBE 29 Jun 15:57:05 16:01:54 76° 287° (WNW) 16:06:40 437.505
BEESAT 29 Jun 16:22:23 16:27:02 50° 291° (WNW) 16:31:39 436.000
ITUPSAT 1 29 Jun 16:24:08 16:28:48 49° 291° (WNW) 16:33:25 437.325
Cubesat XI-IV 29 Jun 16:28:19 16:29:04 10° 48° (NE) 16:29:50 437.490
NOAA 18 29 Jun 16:29:43 16:32:03 13° 49° (NE) 16:34:23 137.9125
AO-7 29 Jun 16:33:13 16:41:18 53° 258° (WSW) 16:49:30 29.400- 29.500
BRITE-PL 29 Jun 16:33:39 16:34:40 11° 56° (NE) 16:35:41 437.365/2234.400
RS-15 29 Jun 16:48:24 16:59:15 37° 357° (N) 17:10:26 29.354- 29.394
MOZHAYETS 4 29 Jun 16:51:48 16:56:19 47° 99° (E) 17:00:47
AIST 1 29 Jun 16:51:49 16:55:25 26° 89° (E) 16:59:01
KKS-1 29 Jun 16:53:46 16:58:07 51° 100° (E) 17:02:28 437.445
CUTE-I 29 Jun 16:59:03 17:02:35 18° 55° (NE) 17:06:06 437.470
SO-50 29 Jun 17:01:21 17:06:15 76° 310° (NW) 17:11:08 436.795
HORYU 2 29 Jun 17:20:41 17:25:05 67° 257° (WSW) 17:29:34 437.375
NOAA 15 29 Jun 17:22:10 17:26:52 34° 64° (ENE) 17:31:35 137.62
STARS 29 Jun 17:22:54 17:27:14 53° 101° (E) 17:31:33 437.465
GONETS M04 29 Jun 17:24:43 17:30:51 22° 76° (ENE) 17:36:58
SWISSCUBE 29 Jun 17:36:51 17:38:53 13° 306° (NW) 17:40:56 437.505
DANDE 29 Jun 17:45:03 17:46:55 12° 49° (NE) 17:48:37 436.750
Cosmos 2504 29 Jun 17:45:55 17:50:03 14° 315° (NW) 17:54:18 435.465 / 435.565
DOVE 4 29 Jun 17:55:25 17:57:09 12° 58° (ENE) 17:58:52 437.250
LilacSat-2 29 Jun 17:57:53 18:01:20 34° 69° (ENE) 18:04:50 437.200
Cubesat XI-IV 29 Jun 18:02:48 18:07:59 52° 68° (ENE) 18:13:12 437.490
NOAA 18 29 Jun 18:06:16 18:11:40 63° 69° (ENE) 18:17:08 137.9125
BRITE-PL 29 Jun 18:07:33 18:12:28 69° 74° (ENE) 18:17:01 437.365/2234.400
CUBESAT XI-V 29 Jun 18:22:25 18:26:57 50° 99° (E) 18:31:25 437.345
Cosmos 2499 29 Jun 18:26:29 18:33:53 36° 83° (E) 18:41:37 435.465 / 435.565
AIST 1 29 Jun 18:29:02 18:32:55 32° 287° (WNW) 18:36:49
MOZHAYETS 4 29 Jun 18:29:31 18:33:13 24° 297° (WNW) 18:36:53
KKS-1 29 Jun 18:31:02 18:34:22 21° 299° (WNW) 18:37:41 437.445
AO-7 29 Jun 18:35:01 18:36:08 10° 280° (W) 18:37:14 29.400- 29.500
GOMX 1 29 Jun 18:35:39 18:40:06 60° 73° (ENE) 18:44:20 467.674
CUTE-I 29 Jun 18:36:35 18:41:57 85° 254° (WSW) 18:47:23 437.470
HO-68 29 Jun 18:41:30 18:47:20 28° 54° (NE) 18:53:11 435.675
CINEMA 3 29 Jun 18:42:54 18:44:19 12° 57° (ENE) 18:45:45 145.822/145.860
SO-50 29 Jun 18:43:49 18:47:31 21° 332° (NNW) 18:51:10 436.795
CUSAT 1 29 Jun 18:52:51 18:56:46 87° 259° (WSW) 18:59:48 437.405
STARS 29 Jun 19:00:03 19:03:15 20° 299° (WNW) 19:06:28 437.465
NOAA 15 29 Jun 19:01:37 19:06:35 40° 262° (W) 19:11:33 137.62
RS-15 29 Jun 19:03:34 19:15:23 50° 30° (NNE) 19:27:16 29.354- 29.394
COMPASS 1 29 Jun 19:13:48 19:15:16 12° 57° (ENE) 19:16:44 437.405
CANX-2 29 Jun 19:14:28 19:17:52 23° 64° (ENE) 19:21:18 2200.000
GONETS M04 29 Jun 19:17:45 19:26:28 90° 95° (E) 19:35:13
DANDE 29 Jun 19:25:57 19:31:15 80° 77° (ENE) 19:35:07 436.750
DOVE 4 29 Jun 19:30:01 19:34:18 83° 254° (WSW) 19:38:29 437.250
LilacSat-2 29 Jun 19:32:49 19:35:45 21° 267° (W) 19:38:43 437.200
CUTE 1.7 + AOD 2 29 Jun 19:33:46 19:37:32 31° 67° (ENE) 19:41:20 437.475
SEEDS 29 Jun 19:35:53 19:39:21 24° 65° (ENE) 19:42:49 437.485
Cubesat XI-IV 29 Jun 19:43:56 19:48:21 26° 267° (W) 19:52:48 437.490
AUBIESAT-1 29 Jun 19:47:46 19:49:15 13° 54° (NE) 19:50:45 437.475
BRITE-PL 29 Jun 19:48:22 19:51:21 16° 270° (W) 19:54:14 437.365/2234.400
NOAA 18 29 Jun 19:48:37 19:52:48 22° 269° (W) 19:57:00 137.9125
CUBESAT XI-V 29 Jun 20:00:26 20:04:02 23° 298° (WNW) 20:07:35 437.345
CUBEBUG 2 29 Jun 20:06:10 20:09:36 25° 64° (ENE) 20:13:07 437.445
AAUSAT CUBESAT 2 29 Jun 20:11:09 20:14:52 31° 67° (ENE) 20:18:36 437.432
STRAND 1 29 Jun 20:11:55 20:16:53 45° 99° (E) 20:21:48 437.568
GOMX 1 29 Jun 20:15:47 20:18:34 16° 270° (W) 20:21:17 467.674
CINEMA 3 29 Jun 20:16:39 20:20:47 90° 78° (ENE) 20:25:01 145.822/145.860
Cosmos 2499 29 Jun 20:18:11 20:26:32 62° 285° (WNW) 20:35:22 435.465 / 435.565
CUTE-I 29 Jun 20:20:17 20:22:49 13° 274° (W) 20:25:23 437.470
M-CUBED/EXP-1 PRIME 29 Jun 20:26:24 20:29:26 36° 64° (ENE) 20:32:31 437.505
HO-68 29 Jun 20:27:16 20:34:26 76° 254° (WSW) 20:41:40 435.675
ZACube-1 29 Jun 20:27:20 20:30:29 20° 62° (ENE) 20:33:41 437.345
SO-50 29 Jun 20:28:05 20:29:48 12° 356° (N) 20:31:32 436.795
Oscar 11 29 Jun 20:34:19 20:37:52 25° 64° (ENE) 20:41:28 145.826/435.025
FUNcube-1 29 Jun 20:43:40 20:47:14 27° 65° (ENE) 20:50:53 145.935
COMPASS 1 29 Jun 20:45:55 20:50:08 86° 76° (ENE) 20:54:25 437.405
CANX-2 29 Jun 20:49:26 20:53:30 42° 262° (W) 20:57:37 2200.000
UWE-3 29 Jun 20:50:08 20:54:10 46° 70° (ENE) 20:58:20 435.000/436.395/437.385
PRISM 29 Jun 20:52:50 20:55:37 17° 92° (E) 20:58:22 437.425
AO-85 29 Jun 20:53:38 20:57:23 19° 111° (ESE) 21:01:03 145.980
CUTE 1.7 + AOD 2 29 Jun 21:09:34 21:13:22 30° 265° (W) 21:17:12 437.475
SEEDS 29 Jun 21:10:53 21:14:53 39° 263° (W) 21:18:54 437.485
DANDE 29 Jun 21:11:28 21:12:43 11° 285° (WNW) 21:13:53 436.750
RS-15 29 Jun 21:16:41 21:28:59 77° 238° (WSW) 21:41:12 29.354- 29.394
GONETS M04 29 Jun 21:17:50 21:24:36 24° 302° (WNW) 21:31:25
AUBIESAT-1 29 Jun 21:20:05 21:23:21 57° 253° (WSW) 21:26:41 437.475
HUMSAT D 29 Jun 21:29:01 21:32:14 22° 63° (ENE) 21:35:30 437.325/437.525
YUBILEINY 29 Jun 21:31:04 21:33:59 12° 42° (NE) 21:36:54 435.215
CUBEBUG 2 29 Jun 21:42:11 21:46:05 37° 263° (W) 21:50:06 437.445
AAUSAT CUBESAT 2 29 Jun 21:46:42 21:50:21 28° 265° (W) 21:54:02 437.432
DELFI C3 29 Jun 21:46:44 21:50:43 60° 73° (ENE) 21:54:43 145.870
STRAND 1 29 Jun 21:51:28 21:55:53 29° 298° (WNW) 22:00:16 437.568
M-CUBED/EXP-1 PRIME 29 Jun 22:02:14 22:04:13 15° 262° (W) 22:06:15 437.505
ZACube-1 29 Jun 22:02:21 22:06:27 49° 261° (W) 22:10:41 437.345
SO-50 29 Jun 22:09:18 22:12:17 16° 21° (NNE) 22:15:13 436.795
Oscar 11 29 Jun 22:09:46 22:13:50 39° 263° (W) 22:17:57 145.826/435.025
Cosmos 2499 29 Jun 22:16:31 22:21:51 17° 310° (NW) 22:27:17 435.465 / 435.565
HO-68 29 Jun 22:19:18 22:23:22 16° 275° (W) 22:27:28 435.675
FUNcube-1 29 Jun 22:19:29 22:23:22 35° 264° (W) 22:27:22 145.935
CUBEBUG 1 29 Jun 22:24:43 22:26:41 13° 57° (ENE) 22:28:38 437.445
COMPASS 1 29 Jun 22:25:21 22:26:19 11° 274° (W) 22:27:17 437.405
PRISM 29 Jun 22:27:15 22:31:13 49° 290° (WNW) 22:35:08 437.425
UWE-3 29 Jun 22:27:48 22:30:55 20° 269° (W) 22:34:06 435.000/436.395/437.385
AO-85 29 Jun 22:31:57 22:37:22 83° 309° (NW) 22:42:34 145.980
VELOX 1 29 Jun 22:35:40 22:38:16 16° 58° (ENE) 22:40:53 145.980
ANTELSAT 29 Jun 22:44:15 22:47:58 23° 92° (E) 22:51:42 437.575/2403.000
Cosmos 2491 29 Jun 22:53:03 22:53:59 10° 66° (ENE) 22:54:55 435.465 / 435.565
HUMSAT D 29 Jun 23:03:35 23:07:36 44° 262° (W) 23:11:42 437.325/437.525
SPROUT 29 Jun 23:08:20 23:10:35 14° 59° (ENE) 23:12:51 437.525
UKube-1 29 Jun 23:08:27 23:11:37 20° 61° (ENE) 23:14:48 .
AISAT 29 Jun 23:14:58 23:18:58 35° 67° (ENE) 23:22:58 437.250
ESTCUBE 1 29 Jun 23:16:07 23:20:31 52° 71° (ENE) 23:24:57 437.505/2401.250
DELFI C3 29 Jun 23:23:47 23:25:59 14° 271° (W) 23:28:10 145.870
YUBILEINY 29 Jun 23:25:19 23:33:44 45° 69° (ENE) 23:42:07 435.215
DX 1 29 Jun 23:29:59 23:34:00 37° 67° (ENE) 23:38:01 434.975-435.025
RS-15 29 Jun 23:30:42 23:39:27 24° 262° (W) 23:48:12 29.354- 29.394
TIGRISAT 29 Jun 23:34:52 23:39:30 65° 102° (ESE) 23:44:10 435.000
NANOSAT C BR1 29 Jun 23:36:49 23:38:47 13° 88° (E) 23:40:43 145.865
50 SAT 29 Jun 23:39:18 23:42:58 58° 73° (ENE) 23:46:40 437.505
QB50P1 29 Jun 23:40:15 23:42:40 15° 89° (E) 23:45:06 145.935-145.965
UNISAT 6 29 Jun 23:40:29 23:45:09 77° 102° (ESE) 23:49:51 437.425
Cosmos 2504 29 Jun 23:40:56 23:47:35 23° 55° (NE) 23:54:04 435.465 / 435.565
POPSAT HIP 1 29 Jun 23:43:28 23:46:05 16° 90° (E) 23:48:40 437.405
SO-50 29 Jun 23:49:17 23:53:53 49° 44° (NE) 23:58:20 436.795
QB50P2 29 Jun 23:55:36 23:58:57 22° 93° (E) 00:02:17 145.880/145.840
DUCHIFAT 1 29 Jun 23:55:50 23:58:52 19° 92° (E) 00:01:54 145.980
CUBEBUG 1 29 Jun 23:57:58 00:02:20 88° 254° (WSW) 00:06:42 437.445
POLYITAN 1 29 Jun 23:58:12 00:01:36 22° 93° (E) 00:04:59 437.675
VELOX 1 30 Jun 00:09:49 00:14:13 73° 257° (WSW) 00:18:38 145.980
AO-85 30 Jun 00:14:21 00:18:34 23° 329° (NNW) 00:22:37 145.980
ANTELSAT 30 Jun 00:20:26 00:24:54 47° 290° (WNW) 00:29:23 437.575/2403.000
TISAT 1 30 Jun 00:22:17 00:25:25 21° 63° (ENE) 00:28:35 437.305
Cosmos 2491 30 Jun 00:40:14 00:48:35 52° 89° (E) 00:56:55 435.465 / 435.565
SPROUT 30 Jun 00:41:44 00:45:59 76° 258° (WSW) 00:50:16 437.525
UKube-1 30 Jun 00:43:09 00:47:21 50° 260° (W) 00:51:35 .
BUGSAT 1 30 Jun 00:45:20 00:48:53 27° 95° (E) 00:52:27 437.445
AISAT 30 Jun 00:51:43 00:55:30 28° 265° (W) 00:59:18 437.250
ESTCUBE 1 30 Jun 00:54:19 00:57:39 20° 269° (W) 01:00:58 437.505/2401.250
DX 1 30 Jun 01:06:41 01:10:17 25° 265° (W) 01:13:55 434.975-435.025
NANOSAT C BR1 30 Jun 01:10:46 01:15:00 73° 287° (WNW) 01:19:15 145.865
TIGRISAT 30 Jun 01:12:32 01:15:45 19° 300° (WNW) 01:18:59 435.000
QB50P1 30 Jun 01:14:40 01:18:53 64° 287° (WNW) 01:23:06 145.935-145.965
50 SAT 30 Jun 01:15:20 01:17:02 13° 271° (W) 01:18:43 437.505
POPSAT HIP 1 30 Jun 01:18:02 01:22:15 60° 288° (WNW) 01:26:28 437.405
UNISAT 6 30 Jun 01:18:28 01:21:19 16° 301° (WNW) 01:24:11 437.425
YUBILEINY 30 Jun 01:22:18 01:30:39 49° 272° (W) 01:39:00 435.215
SO-50 30 Jun 01:30:11 01:34:09 28° 244° (WSW) 01:38:01 436.795
SWISSCUBE 30 Jun 01:30:20 01:34:21 27° 63° (ENE) 01:38:23 437.505
DUCHIFAT 1 30 Jun 01:30:44 01:34:50 48° 289° (WNW) 01:38:55 145.980
QB50P2 30 Jun 01:30:54 01:34:56 42° 291° (WNW) 01:38:57 145.880/145.840
POLYITAN 1 30 Jun 01:33:32 01:37:34 41° 291° (WNW) 01:41:36 437.675
Cosmos 2504 30 Jun 01:33:35 01:42:34 81° 80° (E) 01:51:10 435.465 / 435.565
CUBEBUG 1 30 Jun 01:38:39 01:39:17 10° 274° (W) 01:39:56 437.445
PCSat 30 Jun 01:42:27 01:46:44 24° 109° (ESE) 01:51:02 145.827
JAS-2 30 Jun 01:47:06 01:52:45 57° 100° (E) 01:57:55 435.910
O/OREOS (USA 219) 30 Jun 01:52:30 01:54:08 12° 97° (E) 01:55:45 437.305
Oscar 19 30 Jun 01:52:43 01:56:58 25° 93° (E) 02:01:11 437.125/150
BEESAT 30 Jun 01:54:54 01:59:21 40° 67° (ENE) 02:03:49 436.000
TISAT 1 30 Jun 01:56:50 02:00:49 44° 261° (W) 02:04:51 437.305
ITUPSAT 1 30 Jun 01:56:55 02:01:24 41° 67° (ENE) 02:05:56 437.325
AO-85 30 Jun 01:58:48 02:00:50 12° 353° (N) 02:02:49 145.980
BUGSAT 1 30 Jun 02:20:39 02:24:16 31° 293° (WNW) 02:27:56 437.445
Gurwin Techsat 1B 30 Jun 02:21:58 02:26:05 22° 91° (E) 02:30:09 435.225
KKS-1 30 Jun 02:22:30 02:23:48 11° 55° (NE) 02:25:06 437.445
MOZHAYETS 4 30 Jun 02:24:03 02:25:17 11° 54° (NE) 02:26:31
BEESAT 3 30 Jun 02:34:43 02:38:13 32° 119° (ESE) 02:41:45 437.485
Cosmos 2491 30 Jun 02:37:25 02:45:38 43° 292° (WNW) 02:53:52 435.465 / 435.565
NANOSAT C BR1 30 Jun 02:49:37 02:49:59 10° 305° (NW) 02:50:21 145.865
STARS 30 Jun 02:50:31 02:51:41 11° 55° (NE) 02:52:51 437.465
AIST 1 30 Jun 02:56:14 02:57:23 11° 61° (ENE) 02:58:33
SWISSCUBE 30 Jun 03:07:24 03:11:57 43° 261° (W) 03:16:34 437.505
BEESAT 2 30 Jun 03:15:22 03:19:10 46° 122° (ESE) 03:23:00 435.950
PCSat 30 Jun 03:24:20 03:29:43 64° 308° (NW) 03:35:08 145.827
Cosmos 2504 30 Jun 03:28:02 03:34:58 27° 282° (WNW) 03:41:46 435.465 / 435.565
GONETS M04 30 Jun 03:28:08 03:32:38 15° 47° (NE) 03:37:07
O/OREOS (USA 219) 30 Jun 03:28:19 03:32:49 87° 297° (WNW) 03:37:19 437.305
Oscar 19 30 Jun 03:31:36 03:36:33 49° 291° (WNW) 03:41:27 437.125/150
JAS-2 30 Jun 03:32:51 03:37:26 25° 302° (WNW) 03:41:42 435.910
BEESAT 30 Jun 03:33:06 03:37:14 29° 265° (W) 03:41:24 436.000
ITUPSAT 1 30 Jun 03:35:14 03:39:22 28° 265° (W) 03:43:31 437.325
AO-85 30 Jun 03:40:35 03:43:23 15° 18° (NNE) 03:46:03 145.980
KKS-1 30 Jun 03:55:11 03:59:36 75° 74° (ENE) 04:04:02 437.445
CUBESAT XI-V 30 Jun 03:55:25 03:57:07 12° 55° (NE) 03:58:50 437.345
MOZHAYETS 4 30 Jun 03:56:59 04:01:36 69° 73° (ENE) 04:06:14
ITAMSAT 1 30 Jun 03:57:22 04:02:30 53° 100° (E) 04:07:36 435.822/435.867
Gurwin Techsat 1B 30 Jun 04:01:11 04:06:26 60° 290° (WNW) 04:11:39 435.225
BEESAT 3 30 Jun 04:12:15 04:15:52 34° 318° (NW) 04:19:32 437.485
Cosmos 2499 30 Jun 04:12:52 04:18:37 18° 51° (NE) 04:24:13 435.465 / 435.565
AIST 2 30 Jun 04:13:19 04:15:04 12° 110° (ESE) 04:16:49 435.215
STARS 30 Jun 04:22:55 04:27:17 76° 72° (ENE) 04:31:40 437.465
AO-7 30 Jun 04:30:08 04:38:05 44° 99° (E) 04:45:57 29.400- 29.500
AIST 1 30 Jun 04:31:25 04:35:42 90° 54° (NE) 04:39:57
Cosmos 2491 30 Jun 04:43:28 04:45:32 11° 319° (NW) 04:47:36 435.465 / 435.565
BEESAT 2 30 Jun 04:53:45 04:57:11 27° 321° (NW) 05:00:38 435.950
HORYU 2 30 Jun 05:08:38 05:11:43 18° 91° (E) 05:14:47 437.375
O/OREOS (USA 219) 30 Jun 05:10:19 05:12:56 15° 317° (NW) 05:15:34 437.305
PCSat 30 Jun 05:10:25 05:14:12 19° 331° (NNW) 05:18:00 145.827
AO-85 30 Jun 05:20:38 05:25:08 42° 42° (NE) 05:29:15 145.980
GONETS M04 30 Jun 05:23:17 05:31:51 56° 73° (ENE) 05:40:25
CUBESAT XI-V 30 Jun 05:29:00 05:33:42 75° 74° (ENE) 05:38:24 437.345
KKS-1 30 Jun 05:34:35 05:36:43 13° 272° (W) 05:38:51 437.445
MOZHAYETS 4 30 Jun 05:36:29 05:39:16 16° 272° (W) 05:42:03
ITAMSAT 1 30 Jun 05:37:23 05:41:41 26° 299° (WNW) 05:45:58 435.822/435.867
Gurwin Techsat 1B 30 Jun 05:43:37 05:45:20 12° 310° (NW) 05:47:03 435.225
AIST 2 30 Jun 05:48:48 05:52:55 86° 306° (NW) 05:57:05 435.215
BEESAT 3 30 Jun 05:53:44 05:54:42 11° 340° (NNW) 05:55:40 437.485
STRAND 1 30 Jun 05:54:55 05:58:05 17° 55° (NE) 06:01:16 437.568
STARS 30 Jun 06:02:10 06:04:11 13° 272° (W) 06:06:12 437.465
Cosmos 2499 30 Jun 06:04:56 06:13:47 67° 76° (ENE) 06:22:04 435.465 / 435.565
BRITE-PL 30 Jun 06:09:47 06:11:52 13° 89° (E) 06:13:58 437.365/2234.400
CUSAT 1 30 Jun 06:17:22 06:21:32 16° 84° (E) 06:25:19 437.405
Cubesat XI-IV 30 Jun 06:17:25 06:20:32 15° 87° (E) 06:23:39 437.490
AO-7 30 Jun 06:22:58 06:31:01 53° 300° (WNW) 06:39:02 29.400- 29.500
NOAA 18 30 Jun 06:25:15 06:29:12 19° 90° (E) 06:33:08 137.9125
GOMX 1 30 Jun 06:35:00 06:36:30 12° 88° (E) 06:38:02 467.674
HORYU 2 30 Jun 06:44:12 06:48:38 57° 289° (WNW) 06:53:03 437.375
CUTE-I 30 Jun 06:50:09 06:54:49 29° 94° (E) 06:59:26 437.470
DANDE 30 Jun 06:54:39 07:00:02 20° 82° (E) 07:05:03 436.750
PCSat 30 Jun 06:58:46 06:59:55 11° 357° (N) 07:01:06 145.827
AO-85 30 Jun 07:01:28 07:05:27 30° 244° (WSW) 07:09:09 145.980
LilacSat-2 30 Jun 07:01:28 07:04:59 31° 96° (E) 07:08:28 437.200
CUBESAT XI-V 30 Jun 07:08:59 07:11:38 15° 272° (W) 07:14:16 437.345
NOAA 15 30 Jun 07:12:22 07:17:34 57° 101° (E) 07:22:43 137.62
GONETS M04 30 Jun 07:20:35 07:28:23 39° 276° (W) 07:36:13
DOVE 4 30 Jun 07:25:05 07:28:11 19° 92° (E) 07:31:24 437.250
AIST 2 30 Jun 07:29:05 07:32:01 18° 329° (NNW) 07:34:58 435.215
STRAND 1 30 Jun 07:31:25 07:36:35 88° 260° (W) 07:41:47 437.568
PHONESAT 2.4 30 Jun 07:42:38 07:44:29 15° 168° (SSE) 07:46:22 2401.200-2431.200
PRISM 30 Jun 07:45:41 07:48:56 22° 63° (ENE) 07:52:11 437.425
BRITE-PL 30 Jun 07:46:45 07:50:52 63° 287° (WNW) 07:54:59 437.365/2234.400
HO-68 30 Jun 07:52:11 07:56:46 18° 87° (E) 08:01:18 435.675
CUSAT 1 30 Jun 07:55:29 08:03:02 78° 99° (E) 08:09:09 437.405
Cubesat XI-IV 30 Jun 07:55:53 08:01:19 86° 287° (WNW) 08:06:43 437.490
Cosmos 2499 30 Jun 07:58:49 08:06:16 32° 279° (W) 08:13:23 435.465 / 435.565
NOAA 18 30 Jun 08:04:52 08:10:26 72° 288° (WNW) 08:15:57 137.9125
CINEMA 3 30 Jun 08:07:45 08:10:48 17° 90° (E) 08:13:55 145.822/145.860
GOMX 1 30 Jun 08:10:57 08:15:09 78° 285° (WNW) 08:19:30 467.674
AO-7 30 Jun 08:17:08 08:21:59 17° 323° (NW) 08:26:50 29.400- 29.500
COMPASS 1 30 Jun 08:27:27 08:28:32 11° 86° (E) 08:29:37 437.405
CUTE-I 30 Jun 08:29:54 08:35:04 47° 293° (WNW) 08:40:10 437.470
CANX-2 30 Jun 08:30:48 08:34:25 26° 93° (E) 08:38:00 2200.000
DANDE 30 Jun 08:33:39 08:42:03 78° 98° (E) 08:49:25 436.750
LilacSat-2 30 Jun 08:35:59 08:39:11 25° 294° (WNW) 08:42:24 437.200
PCSat 30 Jun 08:42:30 08:45:47 16° 24° (NNE) 08:49:04 145.827
CUTE 1.7 + AOD 2 30 Jun 08:50:13 08:54:11 35° 96° (E) 08:58:06 437.475
SEEDS 30 Jun 08:51:02 08:54:38 26° 94° (E) 08:58:13 437.485
NOAA 15 30 Jun 08:52:49 08:57:00 25° 300° (WNW) 09:01:10 137.62
ISS 30 Jun 09:00:35 09:03:32 32° 145° (SE) 09:06:30 145.825
DOVE 4 30 Jun 09:02:00 09:06:11 51° 288° (WNW) 09:10:33 437.250
TIGRISAT 30 Jun 09:03:41 09:05:28 12° 56° (NE) 09:07:16 435.000
UNISAT 6 30 Jun 09:08:47 09:11:09 14° 57° (ENE) 09:13:33 437.425
BEESAT 3 30 Jun 09:11:15 09:13:40 15° 28° (NNE) 09:16:05 437.485
STRAND 1 30 Jun 09:14:06 09:16:31 13° 273° (W) 09:18:57 437.568
PHONESAT 2.4 30 Jun 09:18:16 09:20:29 18° 184° (S) 09:22:41 2401.200-2431.200
PRISM 30 Jun 09:20:06 09:24:02 41° 261° (W) 09:27:59 437.425
AAUSAT CUBESAT 2 30 Jun 09:24:41 09:28:31 33° 96° (E) 09:32:17 437.432
CUBEBUG 2 30 Jun 09:28:29 09:32:42 34° 96° (E) 09:37:00 437.445
M-CUBED/EXP-1 PRIME 30 Jun 09:35:49 09:38:30 17° 99° (E) 09:41:19 437.505
Cubesat XI-IV 30 Jun 09:37:24 09:40:38 16° 306° (NW) 09:43:53 437.490
HO-68 30 Jun 09:38:18 09:45:34 82° 107° (ESE) 09:52:48 435.675
CUSAT 1 30 Jun 09:39:53 09:45:31 24° 295° (WNW) 09:50:22 437.405
CINEMA 3 30 Jun 09:43:49 09:48:18 62° 287° (WNW) 09:52:59 145.822/145.860
RS-15 30 Jun 09:45:10 09:45:54 10° 88° (E) 09:46:39 29.354- 29.394
ANTELSAT 30 Jun 09:46:44 09:50:31 30° 65° (ENE) 09:54:25 437.575/2403.000
ZACube-1 30 Jun 09:46:51 09:50:39 25° 93° (E) 09:54:28 437.345
NOAA 18 30 Jun 09:47:15 09:50:10 15° 309° (NW) 09:53:06 137.9125
GOMX 1 30 Jun 09:52:17 09:52:35 10° 304° (WNW) 09:52:53 467.674
BEESAT 2 30 Jun 09:52:38 09:55:33 19° 32° (NNE) 09:58:27 435.950
Oscar 11 30 Jun 09:53:05 09:56:55 29° 95° (E) 10:00:42 145.826/435.025
COMPASS 1 30 Jun 10:00:28 10:04:42 83° 285° (WNW) 10:08:52 437.405
FUNcube-1 30 Jun 10:03:08 10:07:17 34° 96° (E) 10:11:27 145.935
CANX-2 30 Jun 10:06:25 10:10:22 36° 292° (WNW) 10:14:16 2200.000
UWE-3 30 Jun 10:11:42 10:16:16 63° 100° (E) 10:20:54 435.000/436.395/437.385
DANDE 30 Jun 10:18:30 10:25:27 29° 296° (WNW) 10:31:41 436.750
JAS-2 30 Jun 10:22:54 10:24:47 11° 46° (NE) 10:26:37 435.910
PCSat 30 Jun 10:25:16 10:30:33 48° 48° (NE) 10:35:47 145.827
CUTE 1.7 + AOD 2 30 Jun 10:26:17 10:29:55 27° 294° (WNW) 10:33:30 437.475
SEEDS 30 Jun 10:26:33 10:30:24 34° 292° (WNW) 10:34:13 437.485
AUBIESAT-1 30 Jun 10:28:20 10:32:10 49° 106° (ESE) 10:36:16 437.475
NANOSAT C BR1 30 Jun 10:32:29 10:35:09 17° 60° (ENE) 10:37:49 145.865
QB50P1 30 Jun 10:36:17 10:39:13 19° 62° (ENE) 10:42:11 145.935-145.965
ISS 30 Jun 10:36:35 10:39:51 66° 345° (NNW) 10:43:06 145.825
TIGRISAT 30 Jun 10:37:06 10:41:26 86° 72° (ENE) 10:45:54 435.000
POPSAT HIP 1 30 Jun 10:39:34 10:42:37 20° 62° (ENE) 10:45:41 437.405
UNISAT 6 30 Jun 10:42:54 10:47:15 80° 256° (WSW) 10:51:44 437.425
HUMSAT D 30 Jun 10:43:26 10:46:55 23° 93° (E) 10:50:23 437.325/437.525
Cosmos 2491 30 Jun 10:45:37 10:53:14 32° 63° (ENE) 11:00:48 435.465 / 435.565
BEESAT 3 30 Jun 10:48:07 10:52:05 68° 49° (NE) 10:56:01 437.485
DUCHIFAT 1 30 Jun 10:51:19 10:54:37 23° 64° (ENE) 10:57:56 145.980
AIST 2 30 Jun 10:51:27 10:52:37 11° 18° (NNE) 10:53:47 435.215
QB50P2 30 Jun 10:51:47 10:55:20 27° 65° (ENE) 10:58:54 145.880/145.840
POLYITAN 1 30 Jun 10:54:24 10:57:57 27° 65° (ENE) 11:01:33 437.675
DELFI C3 30 Jun 10:55:22 10:59:21 59° 101° (E) 11:03:15 145.870
PHONESAT 2.4 30 Jun 10:55:56 10:56:22 10° 201° (SSW) 10:56:50 2401.200-2431.200
AAUSAT CUBESAT 2 30 Jun 11:00:23 11:03:53 27° 294° (WNW) 11:07:23 437.432
CUBEBUG 2 30 Jun 11:05:12 11:09:16 32° 293° (WNW) 11:13:24 437.445
M-CUBED/EXP-1 PRIME 30 Jun 11:09:30 11:13:15 51° 294° (WNW) 11:17:17 437.505
ZACube-1 30 Jun 11:22:48 11:27:04 41° 291° (WNW) 11:31:21 437.345
ANTELSAT 30 Jun 11:23:17 11:27:11 32° 264° (W) 11:31:13 437.575/2403.000
HO-68 30 Jun 11:26:53 11:32:34 26° 308° (NW) 11:38:16 435.675
Oscar 11 30 Jun 11:29:08 11:33:04 33° 293° (WNW) 11:36:57 145.826/435.025
BEESAT 2 30 Jun 11:29:53 11:33:55 84° 232° (SW) 11:37:54 435.950
COMPASS 1 30 Jun 11:38:19 11:39:33 11° 303° (WNW) 11:40:46 437.405
BUGSAT 1 30 Jun 11:38:41 11:42:14 31° 67° (ENE) 11:45:49 437.445
FUNcube-1 30 Jun 11:39:28 11:43:28 31° 294° (WNW) 11:47:28 145.935
RS-15 30 Jun 11:44:10 11:54:55 50° 112° (ESE) 12:06:13 29.354- 29.394
CUBEBUG 1 30 Jun 11:44:23 11:46:24 13° 88° (E) 11:48:25 437.445
UWE-3 30 Jun 11:49:08 11:52:18 19° 299° (WNW) 11:55:32 435.000/436.395/437.385
O/OREOS (USA 219) 30 Jun 11:55:24 11:59:44 45° 58° (ENE) 12:04:03 437.305
VELOX 1 30 Jun 11:57:10 11:59:55 16° 90° (E) 12:02:40 145.980
JAS-2 30 Jun 12:01:27 12:08:26 45° 66° (ENE) 12:14:44 435.910
AUBIESAT-1 30 Jun 12:03:34 12:06:26 20° 302° (WNW) 12:09:26 437.475
NANOSAT C BR1 30 Jun 12:06:19 12:10:27 60° 258° (WSW) 12:14:37 145.865
PCSat 30 Jun 12:08:58 12:13:48 34° 248° (WSW) 12:18:36 145.827
QB50P1 30 Jun 12:10:34 12:14:39 52° 260° (W) 12:18:48 145.935-145.965
ISS 30 Jun 12:13:23 12:16:34 47° 4° (N) 12:19:45 145.825
POPSAT HIP 1 30 Jun 12:14:02 12:18:06 49° 260° (W) 12:22:12 437.405
TIGRISAT 30 Jun 12:17:27 12:18:48 11° 274° (W) 12:20:10 435.000
HUMSAT D 30 Jun 12:18:38 12:22:42 41° 291° (WNW) 12:26:44 437.325/437.525
SPROUT 30 Jun 12:25:11 12:27:33 14° 89° (E) 12:29:56 437.525
DUCHIFAT 1 30 Jun 12:26:12 12:30:07 40° 262° (W) 12:34:06 145.980
BEESAT 3 30 Jun 12:26:59 12:29:17 15° 248° (WSW) 12:31:35 437.485
UKube-1 30 Jun 12:27:00 12:30:11 20° 92° (E) 12:33:21 .
QB50P2 30 Jun 12:27:13 12:31:03 34° 263° (W) 12:34:55 145.880/145.840
Cosmos 2504 30 Jun 12:28:27 12:32:05 13° 69° (ENE) 12:35:47 435.465 / 435.565
AIST 2 30 Jun 12:28:35 12:32:21 32° 40° (NE) 12:36:07 435.215
DELFI C3 30 Jun 12:31:21 12:33:46 16° 299° (WNW) 12:36:10 145.870
